[[{"header":{"parameterUnit":"m.s-1","parameterCategory":1,"la1":30.2991,"la2":30.254,"lo1":-89.0895,"lo2":-89.0444,"dy":0.0017,"dx":0.0017,"nx":28,"ny":28,"refTime":"2025-04-05T21:00:00:Z","depth":0,"parameterNumber":2,"parameterNumberName":"U-component_of_WINDS"},"data":[0,0,0,0,0,0,0,0,0,0,0,0,0,0,0,0,0,0,0,0,0,0,0,0,0,0,0,0,0,0,0,0,0,0,0,0,0,0,0,0,0,0,0,0,0,0,0,0,0,0,0,0,0,0,0,0,0,0,3.5307,3.5307,0,3.529,3.529,3.529,3.5167,3.5164,3.5161,3.5158,3.5149,3.5151,3.5154,0,0,0,0,0,0,0,0,0,0,0,0,0,3.5241,3.5243,3.5307,3.5307,3.5307,3.529,3.529,3.529,3.5167,3.5164,3.516,3.5157,3.5148,3.5151,3.5154,0,0,0,0,0,0,0,0,0,0,0,0,0,3.5252,3.5244,3.5307,3.5243,3.5237,3.529,3.529,3.529,3.5168,3.5164,3.5159,3.5155,3.5147,3.5151,3.5154,3.5269,0,0,3.5166,3.5168,0,0,0,0,0,0,0,0,3.5252,3.5255,3.5253,3.5248,3.5241,3.5226,3.5263,3.5283,3.5169,3.5195,3.5158,3.5153,3.5179,3.518,3.5187,3.5269,3.5268,3.5167,3.5169,3.5171,3.5172,0,0,0,0,0,0,0,3.5251,3.5255,3.53,3.5253,3.5246,3.5218,3.5215,3.5266,3.5213,3.5192,3.5183,3.5182,3.5175,3.5183,3.5185,3.5268,3.5166,3.517,3.5172,3.5174,3.5446,3.545,0,0,0,0,0,0,3.5258,3.5255,3.5301,3.53,3.5235,3.5223,3.5219,3.5236,3.5212,3.5203,3.5186,3.5177,3.5179,3.5181,3.5185,3.5318,3.5171,3.5174,3.5176,3.5441,3.5447,3.5452,0,0,0,0,0,0,3.5257,3.5263,3.5302,3.5275,3.5278,3.5229,3.5248,3.5238,3.5246,3.5207,3.5198,3.5205,3.5175,3.5179,3.5249,3.5316,3.5176,3.5179,3.5435,3.5443,3.5449,3.5587,0,0,0,0,0,0,3.5256,3.5264,3.5305,3.5277,3.5279,3.5364,3.5252,3.5241,3.5252,3.5239,3.5222,3.5215,3.5172,3.5244,3.5253,3.5319,3.5182,3.5429,3.5438,3.5447,3.5576,3.5598,3.5617,0,0,0,0,0,3.5254,3.5346,3.5308,3.5314,3.533,3.5368,3.537,3.5317,3.5258,3.53,3.5276,3.5215,3.5307,3.5252,3.5261,3.533,3.5424,3.5436,3.5446,3.5567,3.5594,3.5616,0,0,0,0,0,0,3.5386,3.5341,3.5298,3.5383,3.538,3.5347,3.5399,3.5347,3.5363,3.5351,3.5287,3.5284,3.5364,3.5353,3.5293,3.544,3.5355,3.5369,3.5444,3.5469,3.5489,3.5491,3.5186,0,0,0,0,0,3.5425,3.5457,3.5417,3.5496,3.5497,3.5449,3.5464,3.5423,3.5418,3.5417,3.5397,3.5398,3.5426,3.5447,3.5471,3.5574,3.5569,3.5625,3.5646,3.5663,3.5676,3.573,3.5755,3.5488,3.5488,3.5488,0,0,3.5506,3.5485,3.551,3.5522,3.5515,3.5553,3.5449,3.5493,3.5521,3.5425,3.5488,3.5474,3.5471,3.5557,3.5595,3.5551,3.5748,3.5677,3.569,3.5694,3.5744,3.577,3.5792,3.5496,3.5494,3.5493,0,0,3.5673,3.566,3.5725,3.5719,3.5709,3.5676,3.5692,3.5667,3.5653,3.5716,3.5644,3.5678,3.5729,3.5729,3.5737,3.5904,3.585,3.5914,3.6021,3.6075,3.6096,3.6115,3.6176,3.6198,3.5927,3.5927,3.5927,0,3.5776,3.5827,3.5766,3.5814,3.5823,3.5734,3.5801,3.58,3.5799,3.5808,3.5759,3.5821,3.5812,3.5898,3.5939,3.5947,3.5965,3.5916,3.6098,3.6115,3.6132,3.619,3.6213,3.5935,3.5934,3.5933,3.5933,0,3.5956,3.5993,3.6047,3.6045,3.606,3.6118,3.6067,3.6089,3.6048,3.6021,3.6087,3.6073,3.6094,3.6111,3.6072,3.6192,3.6166,3.6108,3.6022,3.6166,3.622,3.6241,3.5947,3.5944,3.5941,3.5939,0,0,3.6207,3.617,3.6191,3.619,3.6172,3.62,3.6255,3.6272,3.6294,3.6297,3.6343,3.6388,3.6334,3.6342,3.6302,3.6349,3.6485,3.6285,3.6284,3.6324,3.6619,3.6663,3.669,3.6448,3.6452,3.6455,3.662,0,3.6369,3.6457,3.6403,3.6501,3.6536,3.6452,3.65,3.6496,3.6473,3.6501,3.6476,3.6509,3.6435,3.6439,3.6482,3.6459,3.6543,3.6446,3.6493,3.6495,3.6497,3.6717,3.6764,3.692,3.664,3.6643,3.6646,0,3.6569,3.6578,3.6679,3.6654,3.6667,3.671,3.6722,3.6749,3.6744,3.6723,3.6732,3.6681,3.6735,3.6649,3.6724,3.666,3.6675,3.6667,3.6672,3.6675,3.658,3.6728,3.6969,3.6993,3.6678,3.6675,3.6673,0,3.6745,3.6782,3.6847,3.6848,3.6821,3.6854,3.6845,3.6834,3.6848,3.6859,3.6868,3.6887,3.6898,3.6915,3.687,3.6811,3.6953,3.6862,3.694,3.6941,3.6975,3.6974,3.7223,3.6983,3.6983,3.6982,3.6982,0,3.6932,3.6998,3.6925,3.6966,3.7037,3.6975,3.7049,3.7031,3.7022,3.7059,3.6989,3.7026,3.6964,3.6996,3.6962,3.7031,3.7036,3.7023,3.7014,3.7031,3.7033,3.7041,3.703,3.6988,3.6987,3.6986,3.6985,0,3.7141,3.7095,3.716,3.7128,3.7122,3.7176,3.715,3.7187,3.7158,3.7207,3.7215,3.7171,3.7205,3.7161,3.7192,3.7169,3.7263,3.7237,3.7265,3.7258,3.7338,3.7332,3.7603,3.7636,3.7374,3.7376,3.7378,0,3.7264,3.7312,3.7285,3.7303,3.7297,3.7328,3.7341,3.7283,3.73,3.7297,3.7335,3.7362,3.7381,3.7439,3.7412,3.7435,3.741,3.7503,3.7413,3.7429,3.7413,3.7411,3.7417,3.7522,3.7526,3.7528,3.753,0,3.7489,3.7463,3.7484,3.7497,3.7514,3.7522,3.7525,3.7545,3.7483,3.7507,3.7539,3.7553,3.7583,3.7612,3.7627,3.762,3.7567,3.7558,3.7578,3.7596,3.7611,3.7605,3.7316,3.7553,3.7551,3.7549,3.7548,3.7547,3.766,3.7699,3.7685,3.7711,3.7706,3.771,3.7744,3.7718,3.7743,3.7761,3.7725,3.7767,3.776,3.7775,3.7774,3.7807,3.7768,3.7796,3.7803,3.7811,3.7824,3.7604,3.781,3.7809,3.7809,3.7808,3.7808,0,3.7882,3.7869,3.7892,3.7898,3.7918,3.7861,3.7862,3.7884,3.792,3.7917,3.7936,3.7974,3.8001,3.7976,3.7998,3.803,3.8006,3.8039,3.8037,3.8036,3.7858,3.7839,3.8058,3.8057,3.8057,3.8057,3.8057,3.8057,3.8001,3.8064,3.8037,3.8098,3.8084,3.8122,3.8127,3.8132,3.8129,3.8173,3.8194,3.8176,3.8165,3.8186,3.8209,3.8201,3.8214,3.8255,3.8239,3.8073,3.8049,3.8025,3.8007,3.8258,3.8258,3.8415,3.8416,3.8417]},{"header":{"parameterUnit":"m.s-1","parameterCategory":1,"la1":30.2991,"la2":30.254,"lo1":-89.0895,"lo2":-89.0444,"dy":0.0017,"dx":0.0017,"nx":28,"ny":28,"refTime":"2025-04-05T21:00:00:Z","depth":0,"parameterNumber":3,"parameterNumberName":"V-component_of_WINDS"},"data":[0,0,0,0,0,0,0,0,0,0,0,0,0,0,0,0,0,0,0,0,0,0,0,0,0,0,0,0,0,0,0,0,0,0,0,0,0,0,0,0,0,0,0,0,0,0,0,0,0,0,0,0,0,0,0,0,0,0,-0.3635,-0.3632,0,-0.333,-0.3327,-0.3323,-0.3215,-0.3216,-0.3217,-0.3218,-0.2885,-0.2876,-0.2866,0,0,0,0,0,0,0,0,0,0,0,0,0,-0.4105,-0.4097,-0.3635,-0.3631,-0.3628,-0.3331,-0.3327,-0.3322,-0.3215,-0.3216,-0.3217,-0.3219,-0.2889,-0.2877,-0.2865,0,0,0,0,0,0,0,0,0,0,0,0,0,-0.386,-0.4095,-0.3636,-0.3539,-0.3527,-0.3332,-0.3326,-0.3321,-0.3214,-0.3216,-0.3218,-0.3219,-0.2893,-0.2878,-0.2863,-0.2736,0,0,-0.2818,-0.2811,0,0,0,0,0,0,0,0,-0.3874,-0.3843,-0.3557,-0.3545,-0.3532,-0.3313,-0.337,-0.3124,-0.3214,-0.3332,-0.3218,-0.322,-0.3025,-0.2999,-0.2937,-0.2721,-0.2706,-0.2816,-0.2807,-0.2801,-0.2797,0,0,0,0,0,0,0,-0.3892,-0.3856,-0.3514,-0.3553,-0.3537,-0.3504,-0.3471,-0.3323,-0.3172,-0.3322,-0.3314,-0.328,-0.3018,-0.2952,-0.2929,-0.2702,-0.2817,-0.2804,-0.2794,-0.2789,-0.2363,-0.2361,0,0,0,0,0,0,-0.3928,-0.3871,-0.3523,-0.3505,-0.3712,-0.3494,-0.3457,-0.3381,-0.3173,-0.3144,-0.3279,-0.3276,-0.2977,-0.2946,-0.2917,-0.2754,-0.2801,-0.2787,-0.2779,-0.2366,-0.2363,-0.236,0,0,0,0,0,0,-0.3938,-0.3898,-0.3536,-0.3685,-0.3637,-0.3484,-0.3399,-0.3374,-0.3308,-0.3141,-0.3111,-0.3241,-0.2977,-0.2938,-0.2783,-0.2741,-0.278,-0.2767,-0.2369,-0.2365,-0.2362,-0.2428,0,0,0,0,0,0,-0.3952,-0.3902,-0.3857,-0.3685,-0.363,-0.3413,-0.3397,-0.3367,-0.3285,-0.3279,-0.3097,-0.3068,-0.2975,-0.2806,-0.2769,-0.2721,-0.2755,-0.2371,-0.2367,-0.2363,-0.2429,-0.2427,-0.2426,0,0,0,0,0,-0.3969,-0.3883,-0.3855,-0.3814,-0.357,-0.3411,-0.3378,-0.3279,-0.3282,-0.3232,-0.3125,-0.3074,-0.2752,-0.2791,-0.2748,-0.2695,-0.2374,-0.2368,-0.2363,-0.243,-0.2428,-0.2426,0,0,0,0,0,0,-0.4045,-0.3859,-0.3825,-0.3683,-0.3565,-0.3394,-0.3328,-0.328,-0.3153,-0.3152,-0.3027,-0.2987,-0.2842,-0.2752,-0.2799,-0.2561,-0.2559,-0.2545,-0.2625,-0.2621,-0.262,-0.2643,-0.2743,0,0,0,0,0,-0.4048,-0.3941,-0.378,-0.3669,-0.3612,-0.3481,-0.3407,-0.3342,-0.3212,-0.3159,-0.304,-0.291,-0.2779,-0.2695,-0.2566,-0.2416,-0.2373,-0.2358,-0.2357,-0.2356,-0.2345,-0.2257,-0.2248,-0.2343,-0.2343,-0.2343,0,0,-0.4046,-0.3931,-0.387,-0.3681,-0.3582,-0.3469,-0.3439,-0.3319,-0.3232,-0.3138,-0.2988,-0.2896,-0.2741,-0.259,-0.2516,-0.251,-0.2309,-0.2349,-0.2351,-0.2338,-0.2251,-0.2242,-0.2234,-0.2339,-0.234,-0.2341,0,0,-0.3988,-0.3892,-0.3789,-0.3692,-0.3545,-0.3458,-0.3434,-0.3271,-0.3208,-0.3057,-0.2984,-0.2875,-0.2653,-0.2546,-0.2463,-0.2367,-0.2314,-0.2327,-0.2318,-0.2235,-0.2227,-0.222,-0.2184,-0.2173,-0.2317,-0.2317,-0.2317,0,-0.4004,-0.3837,-0.374,-0.3626,-0.3544,-0.3462,-0.3354,-0.3262,-0.3077,-0.3019,-0.3018,-0.2739,-0.2629,-0.2451,-0.2428,-0.2363,-0.2328,-0.2347,-0.2238,-0.2229,-0.222,-0.2185,-0.2172,-0.2319,-0.2319,-0.2319,-0.2318,0,-0.3863,-0.3747,-0.3681,-0.3514,-0.3423,-0.3313,-0.3195,-0.3114,-0.3056,-0.2968,-0.2812,-0.2679,-0.2521,-0.2474,-0.2413,-0.2286,-0.2287,-0.2263,-0.2259,-0.2216,-0.218,-0.2165,-0.2323,-0.2322,-0.2321,-0.2321,0,0,-0.3841,-0.3626,-0.3603,-0.3526,-0.3359,-0.3264,-0.3148,-0.3001,-0.2933,-0.2808,-0.2705,-0.252,-0.2498,-0.2404,-0.233,-0.2257,-0.2188,-0.2241,-0.2235,-0.2234,-0.2036,-0.2055,-0.2041,-0.2153,-0.215,-0.2147,-0.2049,0,-0.376,-0.3558,-0.3468,-0.3303,-0.3194,-0.3114,-0.3012,-0.2895,-0.281,-0.2699,-0.2601,-0.2474,-0.2454,-0.2397,-0.2321,-0.2213,-0.2146,-0.2218,-0.205,-0.2045,-0.2091,-0.2023,-0.2042,-0.1955,-0.2034,-0.2032,-0.203,0,-0.3638,-0.3522,-0.3349,-0.3196,-0.3146,-0.3057,-0.2915,-0.2813,-0.2676,-0.2619,-0.2516,-0.2447,-0.2316,-0.2323,-0.2138,-0.219,-0.2115,-0.2051,-0.2045,-0.2023,-0.2034,-0.1998,-0.1925,-0.1912,-0.2007,-0.2009,-0.2011,0,-0.364,-0.3438,-0.3309,-0.3245,-0.3064,-0.3003,-0.2923,-0.279,-0.2707,-0.2581,-0.2525,-0.2382,-0.2303,-0.2192,-0.2083,-0.2099,-0.1908,-0.1906,-0.1852,-0.1855,-0.1814,-0.1818,-0.1727,-0.1769,-0.1769,-0.1769,-0.177,0,-0.3558,-0.3454,-0.3308,-0.3228,-0.3108,-0.3004,-0.2886,-0.2799,-0.2681,-0.2579,-0.2498,-0.2402,-0.2266,-0.2151,-0.2064,-0.1923,-0.1888,-0.1834,-0.1812,-0.184,-0.1847,-0.1788,-0.1791,-0.1766,-0.1766,-0.1767,-0.1768,0,-0.3539,-0.3437,-0.3291,-0.3133,-0.3091,-0.301,-0.2871,-0.2787,-0.27,-0.257,-0.2533,-0.2393,-0.2253,-0.2136,-0.1949,-0.1891,-0.1744,-0.1718,-0.1793,-0.1781,-0.1733,-0.1739,-0.16,-0.1576,-0.1636,-0.1636,-0.1636,0,-0.3493,-0.3413,-0.3249,-0.3179,-0.3103,-0.2988,-0.2906,-0.2799,-0.2715,-0.2555,-0.2489,-0.2346,-0.2225,-0.2004,-0.1881,-0.1738,-0.1707,-0.1668,-0.1684,-0.1716,-0.1704,-0.171,-0.17,-0.1667,-0.1667,-0.1667,-0.1667,0,-0.3423,-0.3377,-0.3266,-0.3136,-0.3042,-0.2932,-0.282,-0.2765,-0.2635,-0.2544,-0.2405,-0.2312,-0.2126,-0.1982,-0.1827,-0.1736,-0.1677,-0.1663,-0.1643,-0.167,-0.1717,-0.169,-0.1789,-0.1666,-0.1666,-0.1666,-0.1666,-0.1666,-0.3387,-0.3313,-0.3187,-0.3065,-0.2971,-0.2869,-0.2783,-0.2687,-0.2572,-0.2417,-0.2359,-0.2215,-0.2078,-0.1864,-0.1774,-0.1656,-0.1647,-0.1618,-0.161,-0.1604,-0.1609,-0.1738,-0.1626,-0.1626,-0.1626,-0.1626,-0.1626,0,-0.3312,-0.3229,-0.3118,-0.2967,-0.287,-0.2832,-0.2706,-0.2625,-0.2503,-0.2384,-0.2269,-0.2107,-0.1968,-0.1836,-0.1688,-0.1619,-0.1588,-0.1583,-0.1586,-0.1566,-0.1625,-0.1657,-0.1611,-0.1611,-0.1611,-0.1611,-0.1611,-0.1611,-0.3262,-0.3134,-0.3073,-0.2896,-0.281,-0.2676,-0.2607,-0.251,-0.2415,-0.2241,-0.2128,-0.2046,-0.1919,-0.1762,-0.1631,-0.1595,-0.1543,-0.1546,-0.1502,-0.1559,-0.1562,-0.1565,-0.1594,-0.1536,-0.1536,-0.1453,-0.1452,-0.1451]}]]